Location: Mason
(37.5237°N, 89.2543°W)
Time: 07:42:33
(UTC+00:00)

Cosmos 1726 Rocket - Pass Details

Date: 24 January 2021
Orbit: 604 x 628 km, 82.5° (Epoch: 08 March)

Event Time Altitude Azimuth Distance (km) Brightness Sun altitude
Rises 23:35:57 0° 350° (N) 2,888 6.9 -5.1°
Reaches altitude 10° 23:38:11 10° 348° (NNW) 1,983 6.1 -5.5°
Maximum altitude 23:42:33 71° 265° (W) 655 3.9 -6.3°
Drops below altitude 10° 23:46:56 10° 181° (S) 1,984 6.4 -7.2°
Sets 23:49:09 0° 180° (S) 2,889 7.2 -7.6°
